CW2718 Weather Reports


Display with metric or nautical units.
time (UTC)temp
F
wind
direction
speed
MPH
gust
MPH
rain 1hr
in
rain 24hr
in
rain mn
in
humidity
%
barometer
mb
20260901014138 71 215 0.0 0.0 0.00 0.41 0.02 88 1016.8
20260901013138 71 215 0.0 0.0 0.00 0.41 0.02 87 1016.8
20260901012138 71 215 0.0 0.0 0.00 0.42 0.02 86 1016.7
20260901010138 71 215 0.0 0.0 0.00 0.42 0.02 86 1016.8
20260901005138 72 215 0.0 0.0 0.00 0.43 0.02 85 1016.7
20260901004138 72 215 0.0 0.0 0.00 0.44 0.02 84 1016.7
20260901003138 72 215 0.0 0.0 0.00 0.44 0.02 84 1016.5
20260901002139 73 215 0.0 0.0 0.00 0.44 0.02 83 1016.5
20260901000138 73 215 0.0 0.0 0.00 0.44 0.02 82 1016.3
20260831235138 74 215 0.0 0.0 0.00 0.44 0.02 81 1016.4
20260831234138 75 215 0.0 0.0 0.00 0.44 0.02 79 1016.4
20260831233138 75 215 0.0 0.0 0.00 0.44 0.02 78 1016.3
20260831232138 75 215 0.0 0.0 0.00 0.44 0.02 78 1016.4
20260831231138 76 215 0.0 0.0 0.00 0.44 0.02 78 1016.5
20260831230139 76 215 0.0 0.0 0.00 0.44 0.02 78 1016.6
20260831225138 76 215 0.0 0.0 0.00 0.44 0.02 79 1016.6
20260831224138 76 215 0.0 0.0 0.00 0.44 0.02 80 1016.7
20260831223138 76 215 0.0 0.0 0.00 0.44 0.02 79 1016.8
20260831222138 76 215 0.0 0.0 0.00 0.44 0.02 80 1017.0
20260831220138 75 215 0.0 0.0 0.00 0.44 0.02 78 1017.0
20260831215138 75 215 0.0 0.0 0.00 0.44 0.02 79 1017.2
20260831214138 76 215 0.0 0.0 0.00 0.44 0.02 80 1017.2
20260831212138 76 185 0.0 0.0 0.00 0.46 0.02 79 1017.2
20260831211138 76 200 0.0 0.0 0.01 0.47 0.02 81 1017.1
20260831210138 76 200 0.0 0.0 0.01 0.47 0.02 82 1017.3
20260831205138 77 200 0.0 0.0 0.01 0.47 0.02 82 1017.3
20260831203138 77 200 0.0 0.0 0.01 0.47 0.02 84 1017.5
20260831202138 77 200 0.0 0.0 0.01 0.47 0.02 82 1017.6
20260831201138 78 200 0.0 0.0 0.00 0.46 0.01 80 1017.7
20260831200138 78 200 0.0 0.0 0.00 0.46 0.01 76 1017.7
20260831195138 79 201 0.0 2.0 0.00 0.46 0.01 74 1017.9
20260831193138 80 197 0.0 3.0 0.00 0.46 0.01 71 1018.1
20260831191138 80 166 0.0 1.0 0.00 0.46 0.01 68 1018.1
20260831190138 80 166 0.0 0.0 0.00 0.46 0.01 69 1018.2
20260831185138 80 166 0.0 0.0 0.00 0.46 0.01 66 1018.3
20260831183138 81 165 0.0 0.0 0.00 0.46 0.01 66 1018.4
20260831182138 81 165 0.0 1.0 0.00 0.46 0.01 64 1018.3
20260831181138 81 194 0.0 0.0 0.00 0.46 0.01 66 1018.6
20260831175138 81 194 0.0 0.0 0.00 0.46 0.01 65 1018.6
20260831174138 82 194 0.0 2.0 0.00 0.46 0.01 65 1018.6
20260831173137 81 186 0.0 1.0 0.00 0.46 0.01 64 1018.6
20260831172137 82 189 0.0 0.0 0.00 0.46 0.01 64 1018.7
20260831171138 82 189 0.0 0.0 0.00 0.46 0.01 63 1018.6
20260831165137 81 171 0.0 0.0 0.00 0.46 0.01 65 1018.6
20260831163137 80 96 0.0 3.0 0.00 0.46 0.01 67 1018.7
20260831162138 80 94 0.0 5.0 0.00 0.46 0.01 68 1018.7
20260831160138 79 96 0.0 1.0 0.00 0.46 0.01 70 1018.7
20260831155137 79 93 0.0 4.0 0.00 0.46 0.01 70 1018.8
20260831154137 78 108 0.0 3.0 0.00 0.46 0.01 71 1018.8
20260831153137 77 107 0.0 4.0 0.00 0.46 0.01 73 1018.9
20260831152137 77 94 0.0 3.0 0.00 0.46 0.01 75 1018.9
20260831150138 76 111 0.0 5.0 0.00 0.46 0.01 78 1019.0
20260831145138 75 78 0.0 2.0 0.00 0.46 0.01 80 1019.1
20260831144138 74 75 2.0 2.0 0.00 0.46 0.01 81 1019.1
20260831143138 73 81 0.0 1.0 0.00 0.46 0.01 84 1019.3
20260831142138 72 80 0.0 0.0 0.00 0.46 0.01 87 1019.1
20260831141137 71 78 0.0 0.0 0.00 0.46 0.01 89 1019.1
20260831140137 70 109 0.0 3.0 0.00 0.46 0.01 91 1019.0
20260831135138 70 98 0.0 3.0 0.00 0.46 0.01 93 1019.0
20260831134138 70 169 0.0 0.0 0.00 0.46 0.01 95 1018.9
20260831132138 69 169 0.0 1.0 0.00 0.46 0.01 96 1019.0
20260831131138 69 169 0.0 0.0 0.00 0.46 0.01 96 1018.9
20260831130137 69 169 0.0 0.0 0.00 0.46 0.01 96 1018.9
20260831123137 69 169 0.0 0.0 0.00 0.46 0.01 96 1018.8
20260831122137 69 169 0.0 0.0 0.00 0.46 0.01 96 1018.7
20260831121137 68 169 0.0 0.0 0.00 0.46 0.01 96 1018.8
20260831120137 68 169 0.0 0.0 0.00 0.46 0.01 96 1018.7
20260831113137 67 169 0.0 0.0 0.00 0.46 0.01 95 1018.6
20260831112611 67 180 0.0 0.0 0.01 0.46 0.01 95 1018.2
20260831015126 74 157 0.0 4.0 0.02 0.06 0.06 92 1017.8